Location: Newark
(43.4545°N, 5.8521°W)
Time: 10:28:18
(UTC+00:00)

Envisat - Visible Passes

Search period start: 21 November 2019 00:00
Search period end: 01 December 2019 00:00
Orbit: 764 x 766 km, 98.1° (Epoch: 20 November)

Date Brightness Start Highest point End Pass type
(mag) Time Alt. Az. Time Alt. Az. Time Alt. Az.
21 Nov 5.3 06:28:06 10° NE 06:32:28 28° E 06:36:48 10° SSE visible
21 Nov 3.3 17:43:35 10° SE 17:48:20 42° ENE 17:53:06 10° N visible
21 Nov 5.2 19:23:23 10° SSW 19:27:29 25° W 19:31:37 10° NW visible
22 Nov 6.2 05:53:02 10° ENE 05:55:18 13° E 05:57:35 10° ESE visible
22 Nov 3.8 18:45:34 10° S 18:50:30 53° W 18:55:30 10° NNW visible
23 Nov 4.2 06:53:10 10° NNE 06:58:06 49° E 07:03:00 10° S visible
23 Nov 2.9 18:08:41 10° SSE 18:13:43 72° ENE 18:18:48 10° N visible
23 Nov 5.9 19:50:36 10° WSW 19:53:16 14° W 19:55:56 10° WNW visible
24 Nov 5.7 06:17:08 10° NE 06:21:06 23° E 06:25:03 10° SE visible
24 Nov 3.6 17:32:36 10° SE 17:37:08 34° ENE 17:41:40 10° N visible
24 Nov 4.8 19:11:40 10° SSW 19:16:08 31° W 19:20:38 10° NNW visible
25 Nov 3.3 18:34:10 10° S 18:39:12 67° WSW 18:44:18 10° NNW visible
26 Nov 4.7 06:42:02 10° NNE 06:46:47 38° E 06:51:30 10° SSE visible
26 Nov 3.0 17:57:31 10° SSE 18:02:29 57° ENE 18:07:27 10° N visible
26 Nov 5.7 19:38:26 10° SW 19:41:52 18° W 19:45:18 10° NW visible
27 Nov 5.9 06:06:16 10° NE 06:09:43 18° E 06:13:09 10° SE visible
27 Nov 3.9 17:21:43 10° ESE 17:25:57 27° ENE 17:30:11 10° N visible
27 Nov 4.4 19:00:05 10° SSW 19:04:47 38° W 19:09:32 10° NNW visible
28 Nov 3.0 18:22:51 10° SSE 18:27:56 84° W 18:33:02 10° NNW visible
29 Nov 5.1 06:30:57 10° NNE 06:35:27 31° E 06:39:54 10° SSE visible
29 Nov 3.2 17:46:26 10° SE 17:51:15 45° ENE 17:56:05 10° N visible
29 Nov 5.3 19:26:32 10° SW 19:30:28 23° W 19:34:27 10° NW visible
30 Nov 6.1 05:55:37 10° ENE 05:58:19 14° E 06:00:59 10° ESE visible
30 Nov 3.9 18:48:34 10° S 18:53:28 48° W 18:58:23 10° NNW visible
